sat.trackr.live / text

‹ back to catalog

STARLINK-35320

NORAD 65834 · 2025-221M

PAYLOAD ACTIVE UNKNOWN

§ Identity

Operator
Country
US
Launch date
2025-09-29
Launch site
AFWTR
Launch vehicle
Mass (kg)
RCS (m²)

Purposes: comms

External: N2YO · Heavens-Above · Gunter

§ Orbital elements

Epoch: 2026-05-25T01:43:11.653824Z

Period
94.10 min
Inclination
53.1575°
Eccentricity
0.0001061
Mean motion
15.30215465 rev/d
Perigee alt
474.4 km
Apogee alt
475.9 km
Semi-major
6,853.3 km
B*
6.0125e-4
RAAN
93.8526°
Arg perigee
83.1432°
Mean anomaly
276.9689°
Rev number
3,642

§ Raw data

STARLINK-353201 65834U 25221M   26145.07166266  .00017499  00000+0  60125-3 0  99962 65834  53.1575  93.8526 0001061  83.1432 276.9689 15.30215465 36420

JSON: /api/v1/satellites/65834 · /tle

For live sub-satellite position, see the globe view (requires WebGL).

§ Visibility from observer

Set your observer location to see the next 7 days of passes ≥ 10°. The values pass through the URL so the page stays shareable.

No JS? Fill the form by hand. The geolocation button needs JavaScript.